Pentagon, DC (20301)

11:24 PM EDT on October 22, 2014 (GMT -0400)
DCNet Hoover Building Washington DC | Change Station
CLOSE
Current Station
Personal Weather Station
Location: Washington, DC
Elevation: 231 ft
Nearby Weather Stations

Elev 231 ft 38.89 °N, 77.03 °W | Updated 24 minutes ago

Overcast
Overcast
55 °F
Feels Like 55 °F
N
12
Wind Variable Wind from NW
Gusts 0.0 mph

Today
High -- | Low -- °F
--% Chance of Precip.
Yesterday
High -- | Low -- °F
Precip. -- in
7:24 AM 6:19 PM
Waning Crescent, 1% visible
Pressure 29.95 in
Visibility 10.0 miles
Clouds Few 4300 ft
Mostly Cloudy 5500 ft
Dew Point 45 °F
Humidity 68%
Rainfall -999.00 in
Snow Depth Not available.
UV 0 out of 12
Pollen .50 out of 12
Air Quality Not available.
Flu Activity Sporadic
METAR KDCA 230252Z 32017G24KT 10SM FEW043 BKN055 13/06 A2994 RMK AO2 SLP140 T01330061 50000

More Conditions Fewer Conditions

Pressure 29.95 in
Visibility 10.0 miles
Clouds Few 4300 ft
Mostly Cloudy 5500 ft
Dew Point 45 °F
Humidity 68%
Rainfall -999.00 in
Snow Depth Not available.
UV 0 out of 12
Pollen .50 out of 12
Air Quality Not available.
Flu Activity Sporadic
METAR KDCA 230252Z 32017G24KT 10SM FEW043 BKN055 13/06 A2994 RMK AO2 SLP140 T01330061 50000

More Conditions Fewer Conditions

10-Day Weather Forecast

Almanac

Astronomy

Oct. 22, 2014 Rise Set
Actual Time 7:24 AM EDT 6:19 PM EDT
Civil Twilight 6:57 AM EDT 6:46 PM EDT
Nautical Twilight 6:26 AM EDT 7:18 PM EDT
Astronomical Twilight 5:55 AM EDT 7:48 PM EDT
Moon 6:04 AM EDT (10/22) 5:44 PM EDT (10/22)
Length of Visible Light 11h 49m
Length of Day
10h 55m
Tomorrow will be 2m 21s shorter.
Waning Crescent, 1% of the Moon is Illuminated
Today
Waning Crescent
Oct 23
New
Oct 30
First Quarter
Nov 6
Full
Nov 14
Last Quarter

Today's Extremes

State Highs State Lows

Community

WunderPhotos

Upload Photos

1,764,128 photos uploaded!

Nearby

Snow Depth

Station Depth Elevation
No new snow has been reported.

Earthquake Activity

City Distance Mag. Time & Date
No recent earthquake activity has been reported nearby.
Minimum magnitude displayed is 2.5.

Coastal Water Temperatures

Place Temperature
Washington, DC 62.1 °F
Baltimore, MD 64.9 °F
Solomons Island, MD 64.0 °F

Nearby Weather Stations